Location: Bishop�s Knoyle
(51.0728°N, 2.1714°W)
Time: 07:39:48
(UTC+00:00)

BEESAT 2 - Pass Details

Date: 04 December 2021
Orbit: 498 x 513 km, 64.9° (Epoch: 20 January)

Event Time Altitude Azimuth Distance (km) Brightness Sun altitude
Exits shadow 04:17:48 14° 55° (NE) 1,503 ? -32.9°
Drops below altitude 10° 04:18:51 10° 69° (ENE) 1,750 ? -32.7°
Sets 04:21:36 0° 89° (E) 2,632 ? -32.3°
